Overview Statistics Trail Chart Weather Telemetry Raw packets
 

This is the latest recevied weather packets stored in our database for station/object KI5RAB. If no packets are shown the sender has not sent any weather packets the latest 10 day(s).

<< 2 3 4 5 6 7 8 >>
Time Temp. Humidity Pressure Rain* Wind** Luminosity Snow
1788644443 36.11° C 45% 1013.7 hPa 0 mm - 348 W/m² -
1788644138 36.11° C 43% 1013.8 hPa 0 mm - 120 W/m² -
1788643834 35.56° C 45% 1013.8 hPa 0 mm - 441 W/m² -
1788643534 35.56° C 45% 1013.8 hPa 0 mm - 468 W/m² -
1788643228 35.56° C 46% 1013.9 hPa 0 mm - 468 W/m² -
1788642953 35.56° C 45% 1013.9 hPa 0 mm - 333 W/m² -
1788642620 35° C 44% 1014 hPa 0 mm - 487 W/m² -
1788642315 35.56° C 47% 1014 hPa 0 mm - 495 W/m² -
1788642014 36.11° C 48% 1014.1 hPa 0 mm - 522 W/m² -
1788641709 36.11° C 47% 1014.1 hPa 0 mm - 532 W/m² -
1788641408 36.11° C 48% 1014.2 hPa 0 mm - 536 W/m² -
1788641103 36.67° C 45% 1014.4 hPa 0 mm - 550 W/m² -
1788640802 36.11° C 46% 1014.4 hPa 0 mm - 558 W/m² -
1788640498 36.11° C 46% 1014.7 hPa 0 mm - 569 W/m² -
1788640193 36.11° C 46% 1014.6 hPa 0 mm - 575 W/m² -
1788639889 35.56° C 47% 1014.8 hPa 0 mm - 584 W/m² -
1788639584 35° C 50% 1015 hPa 0 mm - 617 W/m² -
1788639279 35° C 48% 1015.1 hPa 0 mm - 123 W/m² -
1788638978 36.11° C 48% 1015.2 hPa 0 mm - 183 W/m² -
1788638675 35.56° C 49% 1015.5 hPa 0 mm - 672 W/m² -
1788638373 35.56° C 50% 1015.4 hPa 0 mm - 679 W/m² -
1788638068 35° C 51% 1015.5 hPa 0 mm - 695 W/m² -
1788637764 35.56° C 51% 1015.5 hPa 0 mm - 687 W/m² -
1788637463 35.56° C 52% 1015.5 hPa 0 mm - 218 W/m² -
1788637163 35° C 49% 1015.7 hPa 0 mm - 693 W/m² -

* Rain latest hour (hover to see other rain measurements)
** Current wind speed in m/s (hover to see current wind gust speed)